Location: Henderson
(36.0400°N, 114.9810°W)
Time: 02:50:43
(UTC-08:00)

Daily predictions for brighter satellites

Satellite Brightness Start Highest point End
(mag) Time Altitude Azimuth Time Altitude Azimuth Time Altitude Azimuth
CZ-3 R/B 4.3 01:20:05 10° W 02:30:33 59° SSE 02:40:29 10° SE
Cosmos 2333 Rocket 4.2 03:32:19 23° ESE 03:32:19 23° ESE 03:34:43 10° SE
Cosmos 2219 Rocket 4.1 03:52:59 21° SSE 03:52:59 21° SSE 03:54:46 10° SSE
Cosmos 2237 Rocket 2.3 04:18:04 71° ESE 04:18:04 71° ESE 04:23:17 10° SSE
SL-16 R/B 3.6 04:17:40 20° N 04:20:50 34° ENE 04:25:54 10° SE
USA 229 DEB 4.4 04:21:03 29° N 04:24:36 52° NE 04:31:37 10° SE
USA 229 4.4 04:21:07 29° N 04:24:42 51° NE 04:31:42 10° SE
Meteor 2-17 Rocket 4.4 04:19:57 10° S 04:26:47 68° N 04:32:03 10° N
Tsikada Rocket 4.2 04:20:03 10° N 04:26:26 70° E 04:32:41 10° SSE
Cosmos 2297 Rocket 2.7 04:28:51 47° N 04:28:51 47° N 04:32:54 10° NNE
Aureole 2 Rocket 4.2 04:31:11 36° NE 04:31:47 39° ENE 04:35:42 10° SE
ISS -0.5 04:38:40 13° NE 04:38:40 13° NE 04:39:44 10° ENE
Cosmos 540 Rocket 3.4 04:38:28 63° N 04:39:17 81° ENE 04:44:24 10° SSE
Cosmos 2227 Rocket 3.5 04:42:32 25° N 04:42:32 25° N 04:45:05 10° N
OAO 2 Rocket 3.1 04:43:00 79° S 04:43:04 80° S 04:47:59 10° E
SKYMED 2 4.2 04:40:33 10° SSE 04:44:46 55° ENE 04:47:04 25° N
Meteor 1-4 Rocket 3.5 04:41:25 10° S 04:44:59 47° E 04:48:36 10° NNE
CZ-3 Stage 3 2.3 04:44:40 45° SSW 04:45:15 48° S 04:55:40 10° ESE
Cosmos 1725 Rocket 3.9 04:44:02 10° SSW 04:50:09 59° W 04:56:21 10° N
Cosmos 1864 Rocket 4.4 04:44:37 10° SSW 04:50:37 59° W 04:56:41 10° N
Meteor 1-21 Rocket 4.2 04:53:04 53° WNW 04:53:43 56° W 04:59:07 10° S
Cosmos 1674 4.3 04:59:03 24° SSW 04:59:03 24° SSW 05:00:40 10° S
CZ-4 R/B 4.3 04:55:01 10° NE 04:57:50 18° E 05:00:41 10° SE
PSLV R/B 3.7 05:02:31 56° SSE 05:02:37 56° SSE 05:05:56 10° ENE
Cosmos 1980 4.2 05:04:36 37° WSW 05:04:36 37° WSW 05:09:33 10° S
BREEZE-M DEB (TANK) 3.7 05:04:46 42° W 05:05:32 46° SW 05:08:29 10° SSE
BREEZE-M DEB (TANK) 4.1 04:54:54 21° NW 05:06:16 88° SW 05:10:46 10° SE
USA 234 4.4 05:03:39 10° E 05:09:27 35° NNE 05:14:46 12° NNW
IUS-9 SRM-1 4.3 05:08:24 17° SW 05:10:44 22° SSW 05:13:08 10° SE
Cosmos 2221 3.9 05:07:20 10° SSE 05:11:25 41° E 05:15:29 10° NNE
Cosmos 2333 Rocket 3.3 05:14:24 24° WSW 05:14:24 24° WSW 05:17:58 10° SSW
Ariane Rocket 3.0 05:10:57 10° NNE 05:16:04 86° ESE 05:21:11 10° SSW
Cosmos 1461 3.9 05:16:58 27° SW 05:16:58 27° SW 05:19:50 10° S
Cosmos 1328 3.6 05:21:08 13° NNW 05:24:42 73° W 05:28:40 10° S
Cosmos 1743 Rocket 3.9 05:23:57 27° NW 05:25:45 40° W 05:29:51 10° SSW
DMSP B5D1-3 4.4 05:21:54 10° S 05:26:59 68° WSW 05:32:06 10° NNW
TELKOM 3 3.4 05:29:53 50° NW 05:29:57 51° NW 05:32:13 10° NE
Cosmos 2058 3.2 05:26:47 10° N 05:30:54 69° E 05:35:00 10° SSE
Cosmos 1842 Rocket 4.0 05:28:33 10° SW 05:32:32 36° WNW 05:36:33 10° NNW
COSMO-SKYMED 1 3.0 05:28:44 10° SSW 05:32:47 38° W 05:35:37 18° NW
Atlas 2A Centaur Rocket 3.9 05:37:32 10° SW 05:39:36 14° S 05:41:02 10° SSE
CSL-04 DEB 4.5 05:36:02 10° N 05:40:25 72° WNW 05:44:42 10° SSW
Cosmos 2233 Rocket 4.5 05:35:02 10° SW 05:40:43 37° WNW 05:46:30 10° N
PAYLOAD A 3.9 05:38:27 10° NNE 05:43:30 86° WNW 05:48:20 10° SSW
CZ-2C R/B 2.8 05:40:24 10° NNE 05:44:57 62° E 05:49:28 10° S
Cosmos 1805 Rocket 4.2 05:41:04 10° N 05:45:26 59° E 05:49:45 10° SSE
Cosmos 968 Rocket 4.1 05:42:08 10° SW 05:46:53 34° WNW 05:51:40 10° N
Helios 1B rocket 4.3 05:43:30 10° SE 05:47:08 31° ENE 05:50:47 10° N
Cosmos 2151 3.1 05:44:47 10° NNW 05:48:52 49° W 05:52:57 10° SSW
Cosmos 2227 4.1 05:44:12 10° SSW 05:49:46 66° WNW 05:55:22 10° NNE
Cosmos 1500 Rocket 4.5 05:49:20 10° NNW 05:53:09 28° W 05:56:56 10° SSW
GPS 2-05 Rocket1 2.8 05:50:39 16° WSW 05:53:10 72° S 05:56:32 10° E
CSL-04 Rocket 3.7 05:48:24 10° N 05:53:31 51° WNW 05:58:35 10° SW
SMAP 3.5 05:49:02 10° NNE 05:53:41 68° ESE 05:58:18 10° S
Tiangong 2 3.3 05:53:05 10° SSW 05:55:46 26° SE 05:58:27 10° E
Cosmos 1356 Rocket 3.8 05:52:02 10° N 05:56:06 65° E 06:00:13 10° SSE
Cosmos 1703 3.4 05:52:39 10° N 05:56:35 80° E 06:00:30 10° S
Cosmos 2034 Rocket 4.0 05:52:00 10° S 05:58:10 85° W 06:04:26 10° N
Cosmos 773 Rocket 4.0 05:53:17 10° NNW 05:58:37 85° WSW 06:03:54 10° SSE
Cosmos 2237 Rocket 3.9 05:59:58 12° W 06:00:54 12° W 06:02:56 10° WSW
SL-16 R/B 3.1 05:59:57 10° NW 06:04:47 30° WSW 06:09:36 10° SSW
Cosmos 1340 Rocket 3.2 06:03:00 10° NNW 06:06:44 42° W 06:10:28 10° SSW
Nadezhda 4 Rocket 4.4 06:05:13 10° N 06:11:34 73° E 06:17:49 10° SSE
Cosmos 2297 Rocket 4.0 06:11:23 10° WNW 06:12:13 10° NW 06:13:01 10° NW
Sich 1 3.2 06:08:17 10° N 06:12:40 77° E 06:16:58 10° S
Cosmos 1271 Rocket 3.9 06:09:41 10° SW 06:12:42 22° WNW 06:15:41 10° NNW
SJ-12 4.1 06:09:08 10° N 06:13:05 50° WNW 06:17:01 10° SSW
Cosmos 1633 Rocket 3.4 06:09:13 10° N 06:13:34 68° E 06:17:52 10° SSE
SPOT 3 Rocket 3.6 06:08:42 10° NNE 06:13:56 88° ESE 06:19:09 10° SSW
Cosmos 1184 Rocket 2.9 06:10:58 10° N 06:14:17 80° E 06:17:34 10° S
ISS -3.3 06:11:25 10° NW 06:14:40 75° SW 06:17:54 10° SE
Cosmos 1328 Rocket 4.4 06:10:38 10° S 06:14:51 56° E 06:19:07 10° NNE
DELTA 2 R/B (1) 3.6 06:13:46 10° WSW 06:19:20 87° SSE 06:24:56 10° ENE
ATLAS 2A CENTAUR R/B 4.0 06:21:53 10° SW 06:22:27 11° SSW 06:22:59 10° S
Cosmos 1484 Rocket 3.1 06:21:24 10° NNE 06:25:27 79° ESE 06:29:24 10° S
IDEFIX/ARIANE 42P 2.8 06:21:57 10° N 06:27:02 49° WNW 06:32:05 10° SW
Cosmos 1092 Rocket 4.4 06:21:05 10° N 06:27:22 70° E 06:33:32 10° SSE
NOSS 3-1 (A) 4.2 06:21:42 10° NW 06:29:32 79° WSW 06:37:59 10° SSE
